Weather reports worldwide

Advertisment
Neuburg/Donau, Germany (10853): temperature & dewpoint: 10.07.2020 04:00:00 - 16.07.2020 04:00:00 (CEST)Neuburg/Donau, Germany (10853): wind speed: 10.07.2020 04:00:00 - 16.07.2020 04:00:00 (CEST)Neuburg/Donau, Germany (10853): wind direction: 10.07.2020 04:00:00 - 16.07.2020 04:00:00 (CEST)Neuburg/Donau, Germany (10853): reduced air pressure: 10.07.2020 04:00:00 - 16.07.2020 04:00:00 (CEST)Neuburg/Donau, Germany (10853): visibility: 10.07.2020 04:00:00 - 16.07.2020 04:00:00 (CEST)
Date & Time tt [°C] td [°C] ff [km/h] ff [kn] dd ppp [hPa] vv [km]
16.07.2020 04:00:00 13,4 12,5 7 4 N 1016,9 15
16.07.2020 03:00:00 13,3 12,3 4 2 N 1017,0 20
16.07.2020 02:00:00 13,2 12,1 4 2 N 1017,1 25
16.07.2020 01:00:00 14,6 12,4 4 2 SW 1016,7 30
16.07.2020 00:00:00 15,5 12,5 7 4 W 1016,4 30
15.07.2020 23:00:00 16,5 12,4 7 4 N 1015,9 35
15.07.2020 22:00:00 16,7 12,0 11 6 W 1015,5 40
15.07.2020 21:00:00 17,5 11,6 11 6 W 1014,7 50
15.07.2020 20:00:00 18,1 11,5 11 6 W 1014,1 50
15.07.2020 19:00:00 18,7 11,2 14 8 W 1013,5 40
15.07.2020 18:00:00 18,8 12,1 18 10 W 1013,5 40
15.07.2020 17:00:00 19,2 12,3 18 10 W 1013,4 40
15.07.2020 16:00:00 18,2 13,7 7 4 WSW 1013,7 20
15.07.2020 15:00:00 17,0 13,3 11 6 W 1014,3 20
15.07.2020 14:00:00 17,5 12,3 14 8 W 1014,4 20
15.07.2020 13:00:00 18,0 12,7 14 8 W 1014,3 20
15.07.2020 12:00:00 18,2 12,0 18 10 W 1014,1 25
15.07.2020 11:00:00 17,2 12,1 5 3 WSW 1013,7 10
15.07.2020 10:00:00 18,2 11,9 7 4 NW 1013,1 20
15.07.2020 09:00:00 17,2 12,2 4 2 W 1013,0 25
15.07.2020 08:00:00 17,0 11,0 7 4 W 1012,7 30
15.07.2020 07:00:00 16,2 10,5 11 6 WSW 1012,5 30
15.07.2020 06:00:00 15,5 11,0 4 2 NW 1012,0 35
15.07.2020 05:00:00 15,4 10,3 0 0 N 1012,1 40
15.07.2020 04:00:00 14,4 11,5 4 2 W 1012,4 50
15.07.2020 03:00:00 15,2 11,4 4 2 N 1012,6 50
15.07.2020 02:00:00 15,9 11,1 4 2 NNE 1012,7 50
15.07.2020 01:00:00 16,0 10,9 4 2 N 1012,9 50
15.07.2020 00:00:00 16,2 10,5 4 2 N 1012,8 50
14.07.2020 23:00:00 17,5 9,2 4 2 NNE 1012,6 60
14.07.2020 22:00:00 16,8 9,1 4 2 N 1012,7 60
14.07.2020 21:00:00 20,6 8,1 4 2 S 1011,8 60
14.07.2020 20:00:00 23,3 7,3 7 4 N 1011,6 60
14.07.2020 19:00:00 24,5 4,1 4 2 NW 1011,5 60
14.07.2020 18:00:00 24,3 7,0 7 4 E 1012,0 60
14.07.2020 17:00:00 25,2 7,4 4 2 N 1012,1 60
14.07.2020 16:00:00 23,3 5,9 7 4 S 1013,0 60
14.07.2020 15:00:00 23,9 6,2 7 4 SE 1013,2 55
14.07.2020 14:00:00 22,9 6,3 11 6 SSE 1014,0 50
14.07.2020 13:00:00 22,4 7,2 7 4 E 1014,7 50
14.07.2020 12:00:00 21,7 8,6 4 2 N 1015,3 45
14.07.2020 11:00:00 20,7 10,7 5 3 E 1016,0 10
14.07.2020 10:00:00 18,5 9,6 4 2 NE 1016,7 40
14.07.2020 09:00:00 17,0 10,7 7 4 E 1017,1 40
14.07.2020 08:00:00 14,0 10,0 4 2 NNE 1017,9 35
14.07.2020 07:00:00 10,3 9,0 0 0 N 1018,6 35
14.07.2020 06:00:00 8,7 7,8 0 0 N 1019,0 30
14.07.2020 05:00:00 9,1 8,2 0 0 N 1018,8 70
14.07.2020 04:00:00 10,1 8,0 0 0 N 1018,9 70
14.07.2020 03:00:00 11,4 9,1 4 2 NNW 1019,1 70
14.07.2020 02:00:00 12,5 9,9 4 2 NNW 1019,0 70
14.07.2020 01:00:00 13,4 9,5 4 2 NE 1019,1 70
14.07.2020 00:00:00 13,8 9,6 4 2 N 1019,3 70
13.07.2020 23:00:00 15,2 9,5 4 2 NNW 1019,3 70
13.07.2020 22:00:00 17,5 8,3 7 4 E 1018,9 70
13.07.2020 21:00:00 20,2 7,7 7 4 E 1018,4 70
13.07.2020 20:00:00 22,5 6,9 7 4 ENE 1018,0 70
13.07.2020 19:00:00 23,6 6,8 11 6 E 1018,0 70
13.07.2020 18:00:00 22,7 6,3 5 3 - 1018,7 10
13.07.2020 17:00:00 22,4 6,6 11 6 E 1019,2 70
13.07.2020 16:00:00 22,7 7,0 14 8 E 1019,5 70
13.07.2020 15:00:00 22,9 7,6 14 8 NNE 1019,9 70
13.07.2020 14:00:00 21,8 6,3 11 6 ENE 1020,6 70
13.07.2020 13:00:00 21,2 7,3 11 6 ENE 1021,4 70
13.07.2020 12:00:00 21,8 7,5 14 8 ENE 1021,8 70
13.07.2020 11:00:00 19,9 8,7 11 6 E 1022,4 70
13.07.2020 10:00:00 18,2 9,3 11 6 ENE 1023,1 70
13.07.2020 09:00:00 16,3 9,0 7 4 ENE 1023,8 70
13.07.2020 08:00:00 14,5 9,4 7 4 ENE 1024,0 60
13.07.2020 07:00:00 10,4 7,9 4 2 NNE 1024,7 60
13.07.2020 06:00:00 9,1 7,5 7 4 NNE 1024,7 50
13.07.2020 05:00:00 9,4 7,6 4 2 NNE 1024,8 50
13.07.2020 04:00:00 9,3 7,3 4 2 NNE 1025,0 50
13.07.2020 03:00:00 10,3 7,9 4 2 NE 1025,1 50
13.07.2020 02:00:00 11,4 8,1 7 4 N 1024,9 50
13.07.2020 01:00:00 12,1 9,2 4 2 NE 1025,1 50
13.07.2020 00:00:00 13,2 9,6 4 2 NE 1024,9 50
12.07.2020 23:00:00 13,7 9,1 4 2 N 1025,1 50
12.07.2020 22:00:00 16,4 8,6 4 2 E 1024,7 50
12.07.2020 21:00:00 18,3 8,5 7 4 ENE 1024,1 50
12.07.2020 20:00:00 20,3 7,6 7 4 ENE 1023,9 60
12.07.2020 19:00:00 21,8 8,4 14 8 ENE 1023,7 60
12.07.2020 18:00:00 20,7 7,6 7 4 ENE 1024,0 60
12.07.2020 17:00:00 21,2 7,3 14 8 E 1024,0 60
12.07.2020 16:00:00 20,8 5,6 11 6 E 1024,1 60
12.07.2020 15:00:00 21,7 7,9 11 6 NNE 1024,4 60
12.07.2020 14:00:00 21,4 6,9 7 4 E 1024,5 40
12.07.2020 13:00:00 20,3 6,6 7 4 ESE 1024,9 40
12.07.2020 12:00:00 19,6 11,5 11 6 E 1025,3 30
12.07.2020 11:00:00 18,2 12,5 7 4 ENE 1025,6 30
12.07.2020 10:00:00 16,6 12,8 7 4 E 1025,8 15
12.07.2020 09:00:00 14,4 12,0 5 3 NNE 1026,1 10
12.07.2020 08:00:00 14,2 11,4 7 4 NE 1025,8 25
12.07.2020 07:00:00 12,5 10,3 7 4 NE 1025,6 50
12.07.2020 06:00:00 11,3 9,4 4 2 N 1025,4 50
12.07.2020 05:00:00 11,3 9,2 4 2 NNE 1025,1 50
12.07.2020 04:00:00 10,6 9,1 4 2 NE 1025,1 50
12.07.2020 03:00:00 11,7 8,9 4 2 N 1025,0 50
12.07.2020 02:00:00 12,2 9,0 4 2 NNE 1024,9 50
12.07.2020 01:00:00 12,5 9,3 7 4 N 1025,0 50
12.07.2020 00:00:00 14,1 9,5 7 4 N 1024,6 50
11.07.2020 23:00:00 14,2 9,4 7 4 N 1024,4 50
11.07.2020 22:00:00 16,1 8,7 4 2 N 1023,6 50
11.07.2020 21:00:00 18,4 8,6 7 4 N 1022,6 50
11.07.2020 20:00:00 21,0 8,3 7 4 N 1021,9 50
11.07.2020 19:00:00 21,9 9,3 11 6 N 1021,2 50
11.07.2020 18:00:00 21,9 7,8 14 8 NW 1021,2 50
11.07.2020 17:00:00 22,6 9,4 11 6 N 1020,9 50
11.07.2020 16:00:00 20,4 8,8 14 8 NW 1021,0 50
11.07.2020 15:00:00 20,8 10,0 11 6 NNW 1021,2 45
11.07.2020 14:00:00 21,4 11,1 11 6 N 1020,8 45
11.07.2020 13:00:00 20,2 12,6 11 6 N 1021,0 45
11.07.2020 12:00:00 18,7 11,8 7 4 NNE 1021,1 40
11.07.2020 11:00:00 17,6 13,4 11 6 N 1020,5 30
11.07.2020 10:00:00 15,5 13,5 7 4 N 1020,7 25
11.07.2020 09:00:00 14,2 13,4 11 6 N 1020,3 18
11.07.2020 08:00:00 14,5 13,7 11 6 NW 1019,9 8
11.07.2020 07:00:00 14,8 13,9 7 4 NNW 1018,8 30
11.07.2020 06:00:00 14,9 13,0 4 2 N 1018,5 18
11.07.2020 05:00:00 15,8 12,6 4 2 NE 1018,0 25
11.07.2020 04:00:00 16,7 12,0 4 2 W 1017,9 35
11.07.2020 03:00:00 16,8 12,2 4 2 N 1017,6 40
11.07.2020 02:00:00 17,2 11,7 4 2 N 1017,4 40
11.07.2020 01:00:00 18,3 11,9 7 4 NNW 1017,0 35
11.07.2020 00:00:00 19,4 11,0 4 2 WNW 1016,3 35
10.07.2020 23:00:00 20,2 11,0 7 4 WSW 1015,7 50
10.07.2020 22:00:00 21,0 10,3 11 6 W 1015,1 50
10.07.2020 21:00:00 22,2 10,3 14 8 WNW 1014,3 45
10.07.2020 20:00:00 23,6 11,9 18 10 NNW 1013,1 45
10.07.2020 19:00:00 24,8 12,6 22 12 NW 1012,1 50
10.07.2020 18:00:00 26,3 13,7 25 14 WNW 1010,7 50
10.07.2020 17:00:00 28,7 14,6 25 14 WNW 1009,3 40
10.07.2020 16:00:00 26,1 17,4 15 8 SSW 1010,1 10
10.07.2020 15:00:00 29,1 14,6 22 12 W 1009,3 60
10.07.2020 14:00:00 29,2 14,3 14 8 W 1009,6 60
10.07.2020 13:00:00 29,2 13,9 18 10 W 1009,9 60
10.07.2020 12:00:00 27,9 13,4 18 10 WSW 1010,2 60
10.07.2020 11:00:00 26,3 14,5 18 10 SW 1010,5 60
10.07.2020 10:00:00 24,1 15,9 4 2 N 1011,3 60
10.07.2020 09:00:00 20,7 13,9 4 2 N 1011,9 60
10.07.2020 08:00:00 18,4 13,5 4 2 SSE 1012,3 60
10.07.2020 07:00:00 14,1 13,3 4 2 N 1013,4 60
10.07.2020 06:00:00 12,7 11,7 4 2 SSW 1013,8 60
10.07.2020 05:00:00 13,4 12,1 4 2 W 1013,8 60
10.07.2020 04:00:00 12,7 11,4 7 4 SSE 1014,0 60

tt = temperature
td = dewpoint
ff = wind speed
dd = wind direction
ppp = reduced air pressure
vv = visibility

Next stations